Terminal Aerodrome Forecast
Issued by NWS

Home | Current Version | Previous Version | Text Only | Print | Product List | Glossary On
Versions: 1 2 3 4 5 6 7 8 9 10 11 12 13 14
000
FTUS45 KLKN 011120
TAFWMC
TAF
KWMC 011120Z 0112/0212 VRB03KT P6SM SCT120 BKN200
     FM011900 25010G18KT P6SM FEW200
     FM020000 29004KT P6SM FEW200
     FM021000 36005KT P6SM OVC120=

USA.gov is the U.S. government's official web portal to all federal, state and local government web resources and services.